Date,TemperatureHighF,TemperatureAvgF,TemperatureLowF,DewpointHighF,DewpointAvgF,DewpointLowF,HumidityHigh,HumidityAvg,HumidityLow,PressureMaxIn,PressureMinIn,WindSpeedMaxMPH,WindSpeedAvgMPH,GustSpeedMaxMPH,PrecipitationSumIn
2013-1-1,17,12,8,11,7,3,94,80,72,0.00,40.00,36,23,45,0.00
2013-1-2,17,12,8,11,7,2,90,79,67,0.00,40.00,25,20,34,0.00
2013-1-3,32,17,8,13,1,-4,70,50,33,0.00,40.00,23,11,29,0.00
2013-1-4,36,21,11,17,7,-2,68,54,40,0.00,40.00,11,5,17,0.00
2013-1-5,28,22,7,11,5,-3,66,49,37,0.00,40.00,37,15,50,0.00
2013-1-6,44,30,15,12,6,-2,49,36,26,0.00,40.00,25,8,35,0.00
2013-1-7,37,31,26,18,10,5,65,40,31,0.00,40.00,55,30,68,0.00
2013-1-8,29,27,23,24,23,19,99,85,68,0.00,40.00,49,37,62,0.04
2013-1-9,45,34,27,28,20,12,80,58,31,0.00,40.00,40,14,50,0.00
2013-1-10,47,37,29,20,14,11,59,39,25,0.00,40.00,37,12,54,0.00
2013-1-11,33,16,4,27,14,2,99,92,55,0.00,40.00,40,24,50,0.40
2013-1-12,10,2,-5,9,1,-6,99,95,91,0.00,40.00,28,12,36,0.00
2013-1-13,5,-2,-12,3,-4,-15,97,91,81,0.00,40.00,14,6,21,0.00
2013-1-14,7,-2,-12,1,-7,-15,89,78,66,0.00,40.00,40,20,51,0.00
2013-1-15,23,12,0,20,7,-9,89,77,67,0.00,40.00,40,32,54,0.00
2013-1-16,35,25,20,22,17,13,89,72,56,0.00,40.00,39,26,47,0.00
2013-1-17,42,28,15,21,14,10,82,56,36,0.00,40.00,33,12,44,0.00
2013-1-18,38,33,29,14,11,8,42,39,36,0.00,40.00,40,31,56,0.00
2013-1-19,40,33,27,12,10,8,45,37,30,0.00,40.00,40,31,57,0.00
2013-1-20,36,30,26,13,9,7,49,40,37,0.00,40.00,35,25,47,0.00
2013-1-21,36,31,26,17,13,11,53,46,36,0.00,40.00,47,34,59,0.00
2013-1-22,43,37,32,11,8,3,37,29,20,0.00,40.00,47,35,62,0.00
2013-1-23,50,42,36,17,8,1,34,24,18,0.00,40.00,37,23,49,0.00
2013-1-24,43,37,32,33,22,10,99,59,29,0.00,40.00,51,34,65,0.23
2013-1-25,40,36,33,33,31,29,92,84,70,0.00,40.00,44,28,54,0.00
2013-1-26,45,38,34,34,31,29,96,78,55,0.00,40.00,37,15,45,0.00
2013-1-27,43,36,31,35,29,23,99,79,49,0.00,40.00,33,15,45,0.04
2013-1-28,35,22,11,31,20,9,99,90,66,0.00,40.00,33,18,39,0.24
2013-1-29,18,12,7,12,8,4,99,85,69,0.00,40.00,31,18,40,0.03
2013-1-30,24,16,7,23,16,5,99,96,88,0.00,40.00,45,32,57,0.14
2013-1-31,26,24,20,25,23,20,99,95,88,0.00,40.00,40,32,50,0.07
2013-2-1,26,25,23,26,24,21,99,96,84,0.00,40.00,40,30,53,0.27
2013-2-2,34,28,21,22,17,14,97,64,45,0.00,40.00,42,32,56,0.05
2013-2-3,39,33,28,14,10,8,47,38,31,0.00,40.00,36,28,47,0.00
2013-2-4,33,30,26,21,15,10,70,55,46,0.00,40.00,55,41,68,0.00
2013-2-5,43,35,28,27,22,20,70,59,41,0.00,40.00,47,33,58,0.00
2013-2-6,38,33,24,31,22,17,87,66,52,0.00,40.00,35,26,47,0.01
2013-2-7,42,29,20,17,8,-6,79,46,21,0.00,40.00,24,11,30,0.00
2013-2-8,44,32,20,26,13,-6,91,45,25,0.00,40.00,12,5,18,0.01
2013-2-9,29,20,16,29,20,16,99,97,86,0.00,40.00,12,6,18,0.47
2013-2-10,22,14,3,20,13,-1,99,96,83,0.00,40.00,17,8,22,0.30
2013-2-11,31,9,-2,10,1,-7,87,71,37,0.00,40.00,34,14,43,0.00
2013-2-12,23,16,9,16,9,2,92,73,60,0.00,40.00,41,30,52,0.01
2013-2-13,25,22,17,24,21,16,99,95,89,0.00,40.00,51,37,65,0.10
2013-2-14,24,19,14,22,18,13,99,95,74,0.00,40.00,35,14,47,0.32
2013-2-15,25,20,15,21,17,14,99,90,82,0.00,40.00,41,26,54,0.06
2013-2-16,35,30,23,22,18,15,85,63,48,0.00,40.00,47,36,60,0.00
2013-2-17,37,29,17,25,16,8,99,62,36,0.00,40.00,35,25,45,0.46
2013-2-18,21,17,15,18,14,1,99,88,43,0.00,40.00,39,21,47,0.08
2013-2-19,37,23,11,17,7,-2,65,49,33,0.00,40.00,20,5,29,0.00
2013-2-20,38,26,18,25,16,9,99,70,45,0.00,40.00,17,8,22,0.00
2013-2-21,22,17,15,22,16,13,99,97,86,0.00,40.00,21,9,27,0.11
2013-2-22,21,17,13,17,13,10,93,84,70,0.00,40.00,49,27,63,0.00
2013-2-23,34,24,16,24,18,12,99,77,54,0.00,40.00,48,25,63,0.13
2013-2-24,20,15,6,20,15,4,99,97,83,0.00,40.00,18,6,23,0.49
2013-2-25,31,21,13,17,12,6,87,69,54,0.00,40.00,37,20,47,0.00
2013-2-26,21,17,13,19,16,13,99,93,75,0.00,40.00,38,14,47,0.18
2013-2-27,20,15,11,14,11,8,97,82,64,0.00,40.00,34,22,42,0.00
2013-2-28,25,20,15,20,14,9,93,78,68,0.00,40.00,39,31,50,0.00
2013-3-1,34,28,22,31,25,16,96,88,73,0.00,40.00,39,30,52,0.04
2013-3-2,43,38,30,30,27,22,94,66,47,0.00,40.00,39,28,50,0.00
2013-3-3,41,34,31,33,29,22,99,81,47,0.00,40.00,42,31,55,0.60
2013-3-4,31,20,12,27,17,8,99,88,76,0.00,40.00,34,18,44,0.29
2013-3-5,42,29,15,16,7,0,85,44,23,0.00,40.00,44,23,55,0.00
2013-3-6,50,41,33,22,16,1,42,35,24,0.00,40.00,31,17,40,0.00
2013-3-7,48,39,31,33,26,18,86,61,41,0.00,40.00,40,11,53,0.00
2013-3-8,50,37,27,32,24,18,97,61,31,0.00,40.00,16,6,20,0.01
2013-3-9,32,25,17,31,24,17,99,95,82,0.00,40.00,12,5,19,0.31
2013-3-10,35,26,17,24,18,11,99,74,44,0.00,40.00,37,19,52,0.02
2013-3-11,31,27,21,30,23,19,99,85,66,0.00,40.00,38,22,50,0.24
2013-3-12,36,28,17,31,26,17,99,90,77,0.00,40.00,35,21,46,0.04
2013-3-13,45,39,33,33,30,29,90,71,56,0.00,40.00,43,31,52,0.00
2013-3-14,51,45,39,30,27,23,63,49,40,0.00,40.00,33,26,44,0.00
2013-3-15,53,48,40,33,26,22,75,41,31,0.00,40.00,38,28,49,0.00
2013-3-16,47,40,29,31,22,12,92,51,29,0.00,40.00,33,18,43,0.00
2013-3-17,36,30,18,29,16,8,99,58,39,0.00,40.00,48,28,66,0.02
2013-3-18,33,23,15,18,12,8,76,62,42,0.00,40.00,39,28,57,0.00
2013-3-19,36,27,17,14,8,0,71,47,25,0.00,40.00,36,23,49,0.00
2013-3-20,46,34,26,33,16,1,99,53,27,0.00,40.00,43,26,55,0.20
2013-3-21,35,29,18,32,26,10,99,88,70,0.00,40.00,43,28,54,0.30
2013-3-22,26,18,15,17,11,6,96,74,44,0.00,40.00,30,18,37,0.01
2013-3-23,15,11,8,14,11,8,99,99,96,0.00,40.00,17,11,21,0.03
2013-3-25,29,20,8,15,9,3,86,62,45,0.00,40.00,18,11,23,0.00
2013-3-26,38,30,19,33,22,3,99,74,45,0.00,40.00,34,21,43,0.09
2013-3-27,46,36,26,33,29,25,96,75,51,0.00,40.00,23,11,30,0.01
2013-3-28,53,42,33,31,28,25,77,58,39,0.00,40.00,19,11,26,0.00
2013-3-29,51,42,34,42,32,29,96,69,49,0.00,40.00,26,15,39,0.03
2013-3-30,50,40,31,34,29,-100,82,67,42,0.00,40.00,32,15,41,0.00
2013-3-31,53,41,28,29,23,18,84,49,30,0.00,40.00,39,20,47,0.00
2013-4-1,50,36,22,35,29,22,99,77,45,0.00,40.00,17,7,22,0.00
2013-4-2,40,34,30,35,32,29,99,92,68,0.00,40.00,17,8,22,0.00
2013-4-3,55,39,26,37,26,17,99,65,28,0.00,40.00,23,11,32,0.06
2013-4-4,56,46,36,32,28,23,78,53,34,0.00,40.00,26,17,33,0.00
2013-4-5,54,45,36,42,30,22,99,57,35,0.00,40.00,42,24,58,0.01
2013-4-6,47,38,32,40,29,26,98,70,48,0.00,40.00,36,23,45,0.00
2013-4-7,46,38,34,37,32,25,98,78,45,0.00,40.00,37,24,50,0.22
2013-4-8,46,32,15,35,26,14,99,81,48,0.00,40.00,26,14,35,0.10
2013-4-9,14,6,0,14,5,0,99,98,91,0.00,40.00,15,10,24,0.04
2013-4-10,28,16,0,26,12,-1,99,82,60,0.00,40.00,41,20,50,0.01
2013-4-11,38,32,28,32,29,25,98,88,68,0.00,40.00,41,18,51,0.10
2013-4-12,43,33,28,36,28,16,99,85,47,0.00,40.00,26,11,35,0.10
2013-4-13,44,37,29,35,25,15,99,65,41,0.00,40.00,45,27,66,0.21
2013-4-14,29,24,16,27,14,8,99,68,46,0.00,40.00,38,24,48,0.00
2013-4-15,25,20,16,21,19,11,99,96,54,0.00,40.00,21,12,29,0.03
2013-4-16,26,20,14,25,19,14,99,98,90,0.00,40.00,22,14,32,0.33
2013-4-17,19,13,7,19,13,7,99,99,98,0.00,40.00,21,12,27,0.43
2013-4-18,24,16,5,18,11,5,99,82,55,0.00,40.00,31,20,40,0.02
2013-4-19,34,28,21,28,23,18,89,80,72,0.00,40.00,45,34,55,0.14
2013-4-20,43,35,31,36,32,28,99,89,68,0.00,40.00,30,22,39,0.20
2013-4-21,45,37,31,32,29,26,96,73,52,0.00,40.00,37,25,46,0.18
2013-4-22,38,23,12,32,22,12,99,95,62,0.00,40.00,26,14,32,0.43
2013-4-23,29,20,6,25,14,6,99,79,56,0.00,40.00,22,9,32,0.02
2013-4-24,40,30,16,23,15,9,74,54,36,0.00,40.00,25,15,34,0.00
2013-4-25,51,42,33,23,15,8,36,33,29,0.00,40.00,27,18,34,0.00
2013-4-26,58,43,28,27,18,11,50,38,25,0.00,40.00,15,7,21,0.00
2013-4-27,59,50,39,29,23,18,44,34,28,0.00,40.00,30,20,37,0.00
2013-4-28,64,52,45,34,29,22,60,40,31,0.00,40.00,34,22,49,0.00
2013-4-29,61,51,39,35,29,26,76,44,29,0.00,40.00,45,26,62,0.00
2013-4-30,51,39,26,39,34,26,99,82,40,0.00,40.00,35,17,45,0.37
2013-5-1,26,22,14,26,21,14,99,98,93,0.00,40.00,21,13,27,0.24
2013-5-2,41,28,10,23,14,6,99,61,33,0.00,40.00,21,9,28,0.00
2013-5-3,56,44,34,30,18,12,59,36,24,0.00,40.00,20,11,27,0.00
2013-5-4,50,42,36,31,28,26,76,58,45,0.00,40.00,22,12,35,0.00
2013-5-5,51,40,29,38,31,26,89,70,45,0.00,40.00,20,11,30,0.00
2013-5-6,58,46,35,38,34,30,87,63,39,0.00,40.00,16,6,27,0.00
2013-5-7,57,46,37,43,37,31,96,73,43,0.00,40.00,21,10,29,0.03
2013-5-8,53,43,37,44,39,35,99,84,51,0.00,40.00,24,9,34,0.09
2013-5-9,52,43,36,44,38,33,98,84,50,0.00,40.00,14,6,24,0.01
2013-5-10,57,46,34,41,31,-100,98,64,34,0.00,40.00,17,6,23,0.00
2013-5-11,65,50,37,41,32,-100,89,55,26,0.00,40.00,22,7,27,0.00
2013-5-12,71,57,41,39,34,28,69,43,28,0.00,40.00,17,9,27,0.00
2013-5-13,74,63,47,42,38,32,59,40,29,0.00,40.00,21,14,27,0.00
2013-5-14,74,65,53,41,36,33,45,35,27,0.00,40.00,21,13,29,0.00
2013-5-15,70,57,47,46,40,34,75,53,36,0.00,40.00,24,10,31,0.00
2013-5-16,69,54,47,48,24,-100,98,53,24,0.00,40.00,29,16,39,0.03
2013-5-17,70,58,47,40,29,-100,73,40,23,0.00,40.00,21,11,28,0.00
2013-5-18,60,48,41,42,36,32,94,64,38,0.00,40.00,35,15,43,0.00
2013-5-19,49,43,39,44,39,35,99,87,65,0.00,40.00,31,20,40,0.09
2013-5-20,46,40,35,42,37,29,99,90,67,0.00,40.00,19,12,28,0.24
2013-5-21,55,44,34,35,31,27,80,61,40,0.00,40.00,24,13,34,0.00
2013-5-22,65,52,39,44,37,33,88,59,34,0.00,40.00,26,11,39,0.00
2013-5-23,71,57,45,49,43,34,92,60,30,0.00,40.00,22,12,34,0.00
2013-5-24,69,57,45,39,31,27,60,40,23,0.00,40.00,26,13,39,0.00
2013-5-25,72,59,43,34,28,24,52,33,19,0.00,40.00,26,13,44,0.00
2013-5-26,74,60,43,36,30,25,48,32,21,0.00,40.00,20,12,30,0.00
2013-5-27,69,56,45,39,31,25,45,38,31,0.00,40.00,32,14,42,0.00
2013-5-28,65,52,40,44,33,24,93,49,36,0.00,40.00,26,10,40,0.00
2013-5-29,51,44,38,43,40,34,99,86,52,0.00,40.00,32,18,45,0.06
2013-5-30,54,45,38,37,30,22,94,59,31,0.00,40.00,51,34,63,0.00
2013-5-31,56,45,36,36,29,25,82,56,34,0.00,40.00,43,27,54,0.00
2013-6-1,60,47,37,40,37,33,99,71,40,0.00,40.00,18,9,27,0.00
2013-6-2,74,58,40,37,32,26,81,42,21,0.00,40.00,24,13,34,0.00
2013-6-3,70,62,48,35,26,18,39,26,18,0.00,40.00,38,21,49,0.00
2013-6-4,68,51,38,43,32,19,91,51,29,0.00,40.00,24,11,37,0.00
2013-6-5,66,50,37,42,35,23,99,63,26,0.00,40.00,16,6,21,0.00
2013-6-6,73,57,41,39,34,28,61,43,28,0.00,40.00,12,6,20,0.00
2013-6-7,74,62,47,46,41,37,81,49,29,0.00,40.00,22,9,45,0.00
2013-6-8,71,60,48,48,38,30,95,47,26,0.00,40.00,24,10,32,0.00
2013-6-9,81,66,47,43,38,33,60,37,23,0.00,40.00,25,16,35,0.00
2013-6-10,86,73,63,45,39,33,34,29,23,0.00,40.00,34,15,42,0.00
2013-6-11,78,70,60,37,33,27,34,26,22,0.00,40.00,29,19,44,0.00
2013-6-12,82,65,54,44,36,28,47,34,24,0.00,40.00,22,10,30,0.00
2013-6-13,81,70,60,46,39,33,40,32,26,0.00,40.00,29,12,45,0.00
2013-6-14,74,63,53,39,34,24,48,34,24,0.00,40.00,30,16,43,0.00
2013-6-15,77,58,43,44,32,22,64,38,23,0.00,40.00,18,7,30,0.00
2013-6-16,79,60,48,40,35,30,51,41,24,0.00,40.00,22,12,29,0.00
2013-6-17,79,59,48,52,42,34,66,54,25,0.00,40.00,15,8,23,0.00
2013-7-31,76,67,62,53,50,47,72,56,34,0.00,40.00,12,8,22,0.00